FW3814 Weather Reports


time (UTC)temp
C
wind
direction
speed
KPH
gust
KPH
rain 1hr
cm
rain 24hr
cm
rain mn
cm
humidity
%
barometer
mb
20260905002005 22 0 0.0 0.0 0.00 0.00 0.00 57 1016.5
20260905001505 22 0 0.0 0.0 0.00 0.00 0.00 61 1016.6
20260905001005 22 0 0.0 0.0 0.00 0.00 0.00 61 1016.5
20260905000505 22 0 0.0 0.0 0.00 0.00 0.00 58 1016.5
20260905000005 22 0 0.0 0.0 0.00 0.00 0.00 58 1016.8
20260904235505 22 0 0.0 0.0 0.00 0.00 0.00 58 1016.8
20260904235026 22 0 0.0 0.0 0.00 0.00 0.00 57 1016.7
20260904234505 22 0 0.0 0.0 0.00 0.00 0.00 57 1016.5
20260904234005 22 0 0.0 0.0 0.00 0.00 0.00 56 1016.8
20260904233505 22 0 0.0 0.0 0.00 0.00 0.00 55 1016.8
20260904233005 22 0 0.0 0.0 0.00 0.00 0.00 53 1016.8
20260904232505 22 0 0.0 0.0 0.00 0.00 0.00 53 1016.8
20260904232026 22 0 0.0 0.0 0.00 0.00 0.00 53 1016.7
20260904231025 23 67 0.0 1.6 0.00 0.00 0.00 53 1016.7
20260904230525 23 67 0.0 1.6 0.00 0.00 0.00 52 1016.6
20260904230004 23 0 0.0 0.0 0.00 0.00 0.00 52 1016.8
20260904225504 23 0 0.0 0.0 0.00 0.00 0.00 51 1016.7
20260904225004 23 0 0.0 0.0 0.00 0.00 0.00 51 1016.8
20260904224504 22 0 0.0 0.0 0.00 0.00 0.00 51 1016.9
20260904224004 22 0 0.0 0.0 0.00 0.00 0.00 50 1016.8
20260904223504 23 0 0.0 0.0 0.00 0.00 0.00 50 1016.9
20260904223004 23 0 0.0 0.0 0.00 0.00 0.00 51 1017.0
20260904222504 23 0 0.0 0.0 0.00 0.00 0.00 50 1016.9
20260904222004 23 0 0.0 0.0 0.00 0.00 0.00 49 1017.0
20260904221504 23 0 0.0 0.0 0.00 0.00 0.00 48 1016.7
20260904221004 23 0 0.0 0.0 0.00 0.00 0.00 45 1016.8
20260904220504 23 0 0.0 0.0 0.00 0.00 0.00 42 1016.9
20260904220004 23 0 0.0 0.0 0.00 0.00 0.00 42 1016.9
20260904215504 23 0 0.0 0.0 0.00 0.00 0.00 41 1016.8
20260904215004 23 0 0.0 0.0 0.00 0.00 0.00 42 1017.0
20260904214504 23 67 0.0 1.6 0.00 0.00 0.00 44 1016.9
20260904214025 23 67 0.0 1.6 0.00 0.00 0.00 44 1017.0
20260904213504 23 0 0.0 0.0 0.00 0.00 0.00 43 1017.2
20260904213004 24 0 0.0 0.0 0.00 0.00 0.00 42 1017.3
20260904212504 24 0 0.0 0.0 0.00 0.00 0.00 41 1017.0
20260904212004 24 0 0.0 0.0 0.00 0.00 0.00 42 1017.1
20260904211525 24 0 0.0 0.0 0.00 0.00 0.00 43 1017.1
20260904211004 24 0 0.0 0.0 0.00 0.00 0.00 43 1017.2
20260904210525 25 0 0.0 0.0 0.00 0.00 0.00 44 1017.2
20260904210004 25 0 0.0 0.0 0.00 0.00 0.00 44 1017.2
20260904205504 24 0 0.0 0.0 0.00 0.00 0.00 45 1017.3
20260904205025 24 0 0.0 0.0 0.00 0.00 0.00 46 1017.4
20260904204504 25 0 0.0 0.0 0.00 0.00 0.00 48 1017.3
20260904204004 25 0 0.0 0.0 0.00 0.00 0.00 48 1017.5
20260904203504 25 0 0.0 0.0 0.00 0.00 0.00 49 1017.4
20260904203004 25 0 0.0 0.0 0.00 0.00 0.00 49 1017.4
20260904202504 25 0 0.0 0.0 0.00 0.00 0.00 49 1017.4
20260904202004 25 0 0.0 0.0 0.00 0.00 0.00 49 1017.4
20260904201504 25 0 0.0 0.0 0.00 0.00 0.00 50 1017.4
20260904201025 25 0 0.0 0.0 0.00 0.00 0.00 50 1017.5
20260904200525 25 0 0.0 0.0 0.00 0.00 0.00 51 1017.4
20260904200004 25 0 0.0 0.0 0.00 0.00 0.00 51 1017.3
20260904195525 25 0 0.0 0.0 0.00 0.00 0.00 52 1017.4
20260904195004 25 0 0.0 0.0 0.00 0.00 0.00 54 1017.3
20260904194504 25 0 0.0 0.0 0.00 0.00 0.00 55 1017.3
20260904194004 25 135 0.0 3.2 0.00 0.00 0.00 56 1017.3
20260904193504 25 135 0.0 3.2 0.00 0.00 0.00 55 1017.2
20260904193004 26 0 0.0 0.0 0.00 0.00 0.00 54 1017.3
20260904192504 26 0 0.0 0.0 0.00 0.00 0.00 53 1017.0
20260904192004 26 0 0.0 0.0 0.00 0.00 0.00 53 1017.0
20260904191525 26 0 0.0 0.0 0.00 0.00 0.00 52 1017.1
20260904191004 26 0 0.0 0.0 0.00 0.00 0.00 52 1017.2
20260904190504 26 0 0.0 0.0 0.00 0.00 0.00 52 1017.0
20260904190004 26 0 0.0 0.0 0.00 0.00 0.00 52 1017.1
20260904185504 26 0 0.0 0.0 0.00 0.00 0.00 52 1017.0
20260904185025 26 0 0.0 0.0 0.00 0.00 0.00 52 1016.9
20260904184504 27 0 0.0 0.0 0.00 0.00 0.00 51 1017.0
20260904184025 27 0 0.0 0.0 0.00 0.00 0.00 51 1016.8
20260904183525 27 0 0.0 0.0 0.00 0.00 0.00 51 1016.9
20260904183004 27 0 0.0 0.0 0.00 0.00 0.00 50 1016.8
20260904182525 27 0 0.0 0.0 0.00 0.00 0.00 50 1016.8
20260904182004 27 0 0.0 0.0 0.00 0.00 0.00 46 1016.8
20260904181504 27 0 0.0 0.0 0.00 0.00 0.00 45 1016.8
20260904181004 27 0 0.0 0.0 0.00 0.00 0.00 44 1016.8
20260904180504 28 0 0.0 0.0 0.00 0.00 0.00 43 1016.7
20260904180004 28 0 0.0 0.0 0.00 0.00 0.00 43 1016.8
20260904175504 28 0 0.0 0.0 0.00 0.00 0.00 43 1016.7
20260904175004 28 0 0.0 0.0 0.00 0.00 0.00 43 1016.7
20260904174504 28 0 0.0 0.0 0.00 0.00 0.00 43 1016.6
20260904174004 28 0 0.0 0.0 0.00 0.00 0.00 43 1016.8
20260904173504 29 0 0.0 0.0 0.00 0.00 0.00 44 1016.5
20260904173004 29 0 0.0 0.0 0.00 0.00 0.00 42 1016.6
20260904172504 29 0 0.0 0.0 0.00 0.00 0.00 42 1016.4
20260904172004 30 0 0.0 0.0 0.00 0.00 0.00 41 1016.4
20260904171504 30 0 0.0 0.0 0.00 0.00 0.00 41 1016.6
20260904171004 30 0 0.0 0.0 0.00 0.00 0.00 40 1016.6
20260904170525 31 0 0.0 0.0 0.00 0.00 0.00 40 1016.6
20260904170025 31 0 0.0 0.0 0.00 0.00 0.00 40 1016.7
20260904165504 31 0 0.0 0.0 0.00 0.00 0.00 40 1016.6
20260904165004 31 0 0.0 0.0 0.00 0.00 0.00 40 1016.6
20260904164504 32 0 0.0 0.0 0.00 0.00 0.00 39 1016.8
20260904164004 32 0 0.0 0.0 0.00 0.00 0.00 38 1016.7
20260904163504 32 0 0.0 0.0 0.00 0.00 0.00 37 1016.8
20260904163004 32 0 0.0 0.0 0.00 0.00 0.00 37 1016.7
20260904162525 32 0 0.0 0.0 0.00 0.00 0.00 37 1016.8
20260904162004 32 0 0.0 0.0 0.00 0.00 0.00 37 1016.8
20260904161504 32 0 0.0 0.0 0.00 0.00 0.00 36 1016.9
20260904161004 32 0 0.0 0.0 0.00 0.00 0.00 36 1016.8
20260904160504 32 315 0.0 1.6 0.00 0.00 0.00 35 1016.8
20260904160004 32 315 0.0 1.6 0.00 0.00 0.00 35 1016.9
20260904155504 32 307 0.0 1.6 0.00 0.00 0.00 32 1017.1
20260904155004 32 271 0.0 1.6 0.00 0.00 0.00 32 1016.9
20260904154525 32 285 0.0 1.6 0.00 0.00 0.00 33 1017.1
20260904154004 32 309 0.0 1.6 0.00 0.00 0.00 33 1017.0
20260904153504 32 297 0.0 1.6 0.00 0.00 0.00 32 1017.0
20260904153004 32 281 0.0 1.6 0.00 0.00 0.00 33 1017.2
20260904152504 32 0 0.0 0.0 0.00 0.00 0.00 33 1017.1
20260904152004 32 0 0.0 0.0 0.00 0.00 0.00 33 1017.1
20260904151504 32 181 0.0 3.2 0.00 0.00 0.00 37 1017.2
20260904151004 32 243 1.6 3.2 0.00 0.00 0.00 36 1017.2
20260904150504 32 258 1.6 3.2 0.00 0.00 0.00 33 1017.3
20260904150004 32 290 1.6 6.4 0.00 0.00 0.00 33 1017.3
20260904145504 32 296 1.6 6.4 0.00 0.00 0.00 33 1017.3
20260904145004 32 318 1.6 6.4 0.00 0.00 0.00 33 1017.4
20260904144504 32 306 1.6 6.4 0.00 0.00 0.00 33 1017.3
20260904144004 32 288 1.6 6.4 0.00 0.00 0.00 32 1017.4
20260904143525 32 235 3.2 12.9 0.00 0.00 0.00 32 1017.5
20260904143004 32 234 3.2 12.9 0.00 0.00 0.00 32 1017.4
20260904142504 32 305 0.0 3.2 0.00 0.00 0.00 32 1017.5
20260904142004 32 307 0.0 3.2 0.00 0.00 0.00 32 1017.5
20260904141525 32 262 1.6 6.4 0.00 0.00 0.00 33 1017.7
20260904141025 32 251 1.6 6.4 0.00 0.00 0.00 33 1017.7
20260904140504 32 0 0.0 0.0 0.00 0.00 0.00 33 1017.7
20260904140004 32 247 0.0 1.6 0.00 0.00 0.00 33 1017.5
20260904135504 32 247 0.0 1.6 0.00 0.00 0.00 38 1017.7
20260904135004 32 281 1.6 8.0 0.00 0.00 0.00 39 1017.5
20260904134504 31 246 6.4 12.9 0.00 0.00 0.00 38 1017.6
20260904134004 32 236 9.7 12.9 0.00 0.00 0.00 38 1017.7
20260904133504 31 235 4.8 12.9 0.00 0.00 0.00 39 1017.8
20260904133004 31 309 1.6 6.4 0.00 0.00 0.00 39 1017.6
20260904132504 31 313 3.2 6.4 0.00 0.00 0.00 38 1017.8
20260904132004 31 241 4.8 12.9 0.00 0.00 0.00 38 1017.8
20260904131504 31 219 4.8 12.9 0.00 0.00 0.00 38 1017.9
20260904131004 31 244 6.4 12.9 0.00 0.00 0.00 39 1017.9
20260904130504 31 247 4.8 9.7 0.00 0.00 0.00 39 1017.9
20260904130004 31 240 0.0 9.7 0.00 0.00 0.00 39 1017.9
20260904125504 31 178 1.6 8.0 0.00 0.00 0.00 40 1018.3
20260904125004 31 193 3.2 12.9 0.00 0.00 0.00 39 1018.0
20260904124504 31 117 3.2 12.9 0.00 0.00 0.00 39 1018.4
20260904124004 31 71 1.6 9.7 0.00 0.00 0.00 39 1018.4
20260904123525 31 297 0.0 4.8 0.00 0.00 0.00 40 1018.4
20260904123004 31 283 1.6 6.4 0.00 0.00 0.00 40 1018.5
20260904122504 31 173 3.2 8.0 0.00 0.00 0.00 40 1018.4
20260904122004 31 141 3.2 8.0 0.00 0.00 0.00 39 1018.5
20260904121504 31 161 3.2 8.0 0.00 0.00 0.00 40 1018.4
20260904121004 31 179 1.6 6.4 0.00 0.00 0.00 40 1018.6
20260904120504 31 315 0.0 1.6 0.00 0.00 0.00 40 1018.5
20260904120004 31 228 0.0 1.6 0.00 0.00 0.00 40 1018.6
20260904115504 31 232 0.0 1.6 0.00 0.00 0.00 40 1018.6
20260904115004 31 105 0.0 3.2 0.00 0.00 0.00 40 1018.5
20260904114504 30 98 0.0 3.2 0.00 0.00 0.00 40 1018.8
20260904114004 30 220 1.6 8.0 0.00 0.00 0.00 40 1018.5
20260904113504 30 218 4.8 9.7 0.00 0.00 0.00 40 1018.8
20260904113004 30 213 3.2 9.7 0.00 0.00 0.00 40 1018.8
20260904112504 30 194 0.0 6.4 0.00 0.00 0.00 40 1018.8
20260904112004 30 82 0.0 1.6 0.00 0.00 0.00 40 1018.8
20260904111504 30 180 1.6 4.8 0.00 0.00 0.00 39 1018.9
20260904111004 30 190 1.6 4.8 0.00 0.00 0.00 40 1018.9
20260904110504 30 227 1.6 6.4 0.00 0.00 0.00 40 1018.9
20260904110004 30 231 1.6 6.4 0.00 0.00 0.00 40 1018.9
20260904105525 30 315 0.0 1.6 0.00 0.00 0.00 40 1018.9
20260904105004 30 0 0.0 0.0 0.00 0.00 0.00 41 1019.0
20260904104504 30 0 0.0 0.0 0.00 0.00 0.00 40 1019.0
20260904104004 30 179 1.6 4.8 0.00 0.00 0.00 40 1019.1
20260904103525 30 183 1.6 4.8 0.00 0.00 0.00 40 1019.2
20260904103004 30 202 0.0 1.6 0.00 0.00 0.00 40 1019.1
20260904102525 30 0 0.0 0.0 0.00 0.00 0.00 40 1019.1
20260904102004 30 67 0.0 1.6 0.00 0.00 0.00 40 1019.4
20260904101504 30 67 0.0 1.6 0.00 0.00 0.00 40 1019.3
20260904101025 30 0 0.0 0.0 0.00 0.00 0.00 41 1019.3
20260904100504 29 0 0.0 0.0 0.00 0.00 0.00 42 1019.4
20260904100025 29 0 0.0 0.0 0.00 0.00 0.00 42 1019.3
20260904095525 28 22 0.0 1.6 0.00 0.00 0.00 42 1019.6
20260904095004 28 22 0.0 1.6 0.00 0.00 0.00 42 1019.6
20260904094504 28 0 0.0 0.0 0.00 0.00 0.00 43 1019.6
20260904094004 28 0 0.0 0.0 0.00 0.00 0.00 43 1019.6
20260904093504 28 0 0.0 0.0 0.00 0.00 0.00 43 1019.7
20260904093004 28 315 0.0 1.6 0.00 0.00 0.00 43 1019.8
20260904092504 28 315 0.0 1.6 0.00 0.00 0.00 44 1019.7
20260904092004 28 360 0.0 3.2 0.00 0.00 0.00 43 1019.8
20260904091504 28 7 0.0 3.2 0.00 0.00 0.00 44 1019.9
20260904091004 28 15 0.0 1.6 0.00 0.00 0.00 44 1019.7
20260904090504 28 0 0.0 0.0 0.00 0.00 0.00 44 1019.7
20260904090004 28 0 0.0 0.0 0.00 0.00 0.00 44 1019.6
20260904085504 28 0 0.0 0.0 0.00 0.00 0.00 44 1019.6
20260904085025 28 0 0.0 0.0 0.00 0.00 0.00 44 1019.6
20260904084504 28 0 0.0 0.0 0.00 0.00 0.00 44 1019.7
20260904084004 28 0 0.0 0.0 0.00 0.00 0.00 43 1019.7
20260904083504 27 0 0.0 0.0 0.00 0.00 0.00 44 1019.5
20260904083004 27 0 0.0 0.0 0.00 0.00 0.00 44 1019.6
20260904082504 27 0 0.0 0.0 0.00 0.00 0.00 48 1019.7
20260904082004 27 0 0.0 0.0 0.00 0.00 0.00 48 1019.7
20260904081504 27 0 0.0 0.0 0.00 0.00 0.00 49 1019.7
20260904081025 27 0 0.0 0.0 0.00 0.00 0.00 49 1019.5
20260904080504 26 0 0.0 0.0 0.00 0.00 0.00 50 1019.7
20260904080004 26 0 0.0 0.0 0.00 0.00 0.00 50 1019.6
20260904075504 26 0 0.0 0.0 0.00 0.00 0.00 50 1019.6
20260904075004 26 0 0.0 0.0 0.00 0.00 0.00 51 1019.5
20260904074504 26 0 0.0 0.0 0.00 0.00 0.00 51 1019.6
20260904074025 26 0 0.0 0.0 0.00 0.00 0.00 52 1019.6
20260904073504 25 0 0.0 0.0 0.00 0.00 0.00 52 1019.5
20260904073004 25 0 0.0 0.0 0.00 0.00 0.00 52 1019.6
20260904072525 25 0 0.0 0.0 0.00 0.00 0.00 52 1019.5
20260904072004 25 0 0.0 0.0 0.00 0.00 0.00 52 1019.4
20260904071504 25 360 0.0 4.8 0.00 0.00 0.00 52 1019.5
20260904071004 25 360 3.2 4.8 0.00 0.00 0.00 52 1019.4
20260904070504 24 5 3.2 4.8 0.00 0.00 0.00 52 1019.2
20260904070004 24 26 1.6 4.8 0.00 0.00 0.00 52 1019.2
20260904065504 24 49 0.0 3.2 0.00 0.00 0.00 52 1019.2
20260904065004 23 46 0.0 3.2 0.00 0.00 0.00 53 1019.3
20260904064504 23 38 0.0 3.2 0.00 0.00 0.00 54 1019.3
20260904064004 23 0 0.0 0.0 0.00 0.00 0.00 54 1019.2
20260904063525 23 0 0.0 0.0 0.00 0.00 0.00 54 1019.4
20260904063004 23 0 0.0 0.0 0.00 0.00 0.00 55 1019.1
20260904062525 22 6 0.0 3.2 0.00 0.00 0.00 55 1019.0
20260904062004 22 5 1.6 3.2 0.00 0.00 0.00 55 1019.1
20260904061504 22 82 0.0 4.8 0.00 0.00 0.00 56 1019.0
20260904061004 22 112 0.0 4.8 0.00 0.00 0.00 56 1019.0
20260904060504 22 0 0.0 0.0 0.00 0.00 0.00 60 1019.0
20260904060004 22 41 0.0 3.2 0.00 0.00 0.00 60 1019.0
20260904055504 22 49 0.0 3.2 0.00 0.00 0.00 60 1018.9
20260904055004 22 67 0.0 3.2 0.00 0.00 0.00 60 1018.8
20260904054525 22 5 1.6 4.8 0.00 0.00 0.00 60 1018.9
20260904054004 22 13 3.2 4.8 0.00 0.00 0.00 60 1019.0
20260904053504 21 18 3.2 9.7 0.00 0.00 0.00 60 1018.9
20260904053004 21 34 3.2 9.7 0.00 0.00 0.00 61 1018.8
20260904052504 21 27 4.8 9.7 0.00 0.00 0.00 61 1018.8
20260904052004 21 16 4.8 6.4 0.00 0.00 0.00 61 1018.9
20260904051525 21 17 4.8 6.4 0.00 0.00 0.00 61 1018.6
20260904051025 20 18 6.4 6.4 0.00 0.00 0.00 62 1018.8
20260904050504 20 21 3.2 6.4 0.00 0.00 0.00 61 1018.7
20260904050004 20 26 1.6 6.4 0.00 0.00 0.00 61 1018.6
20260904045504 20 22 1.6 3.2 0.00 0.00 0.00 61 1018.4
20260904045004 20 22 3.2 6.4 0.00 0.00 0.00 62 1018.6
20260904044504 20 22 1.6 6.4 0.00 0.00 0.00 62 1018.3
20260904044005 20 22 0.0 4.8 0.00 0.00 0.00 62 1018.4
20260904043504 20 22 0.0 1.6 0.00 0.00 0.00 63 1018.4
20260904043004 20 333 0.0 3.2 0.00 0.00 0.00 64 1018.4
20260904042504 20 333 0.0 3.2 0.00 0.00 0.00 64 1018.5
20260904042025 20 360 1.6 6.4 0.00 0.00 0.00 63 1018.4
20260904041504 20 5 4.8 6.4 0.00 0.00 0.00 63 1018.5
20260904041004 20 4 6.4 6.4 0.00 0.00 0.00 62 1018.5
20260904040504 20 360 4.8 6.4 0.00 0.00 0.00 61 1018.5
20260904040004 20 4 4.8 6.4 0.00 0.00 0.00 61 1018.5
20260904035504 20 9 3.2 6.4 0.00 0.00 0.00 61 1018.4
20260904035004 20 12 1.6 6.4 0.00 0.00 0.00 61 1018.4
20260904034504 20 13 3.2 6.4 0.00 0.00 0.00 61 1018.4
20260904034004 20 17 3.2 6.4 0.00 0.00 0.00 61 1018.7
20260904033504 20 19 3.2 6.4 0.00 0.00 0.00 61 1018.7
20260904033004 20 17 1.6 6.4 0.00 0.00 0.00 61 1018.7
20260904032504 20 17 1.6 6.4 0.00 0.00 0.00 61 1018.6
20260904032004 20 360 0.0 1.6 0.00 0.00 0.00 61 1018.7
20260904031504 20 7 0.0 4.8 0.00 0.00 0.00 62 1018.6
20260904031004 20 7 0.0 4.8 0.00 0.00 0.00 62 1018.7
20260904030504 20 0 0.0 0.0 0.00 0.00 0.00 62 1018.7
20260904030004 20 0 0.0 0.0 0.00 0.00 0.00 61 1018.6
20260904025504 20 0 0.0 0.0 0.00 0.00 0.00 60 1018.7
20260904025004 21 0 0.0 0.0 0.00 0.00 0.00 60 1018.6
20260904024525 21 0 0.0 0.0 0.00 0.00 0.00 60 1018.6
20260904024025 21 0 0.0 0.0 0.00 0.00 0.00 60 1018.6
20260904023504 21 36 3.2 8.0 0.00 0.00 0.00 60 1018.6
20260904023004 21 27 4.8 8.0 0.00 0.00 0.00 60 1018.7
20260904022504 21 17 4.8 6.4 0.00 0.00 0.00 61 1018.6
20260904022004 21 11 3.2 6.4 0.00 0.00 0.00 61 1018.6
20260904021504 21 9 3.2 6.4 0.00 0.00 0.00 62 1018.6
20260904021004 21 13 3.2 6.4 0.00 0.00 0.00 62 1018.5
20260904020504 20 351 3.2 4.8 0.00 0.00 0.00 63 1018.6
20260904020004 20 338 3.2 4.8 0.00 0.00 0.00 63 1018.5
20260904015504 20 360 0.0 4.8 0.00 0.00 0.00 63 1018.5
20260904015004 21 360 0.0 4.8 0.00 0.00 0.00 62 1018.4
20260904014504 21 357 1.6 4.8 0.00 0.00 0.00 62 1018.3
20260904014025 21 16 1.6 6.4 0.00 0.00 0.00 61 1018.3
20260904013504 21 22 1.6 6.4 0.00 0.00 0.00 61 1018.3
20260904013004 21 12 0.0 3.2 0.00 0.00 0.00 62 1018.3
20260904012504 21 5 3.2 8.0 0.00 0.00 0.00 61 1018.4
20260904012004 21 5 3.2 8.0 0.00 0.00 0.00 60 1018.3
20260904011504 21 360 0.0 3.2 0.00 0.00 0.00 60 1018.4
20260904011004 21 0 0.0 0.0 0.00 0.00 0.00 60 1018.3
20260904010504 21 0 0.0 0.0 0.00 0.00 0.00 60 1018.5
20260904010004 21 0 0.0 0.0 0.00 0.00 0.00 60 1018.5
20260904005504 21 0 0.0 0.0 0.00 0.00 0.00 60 1018.4
20260904005004 22 0 0.0 0.0 0.00 0.00 0.00 60 1018.3
20260904004504 22 9 0.0 4.8 0.00 0.00 0.00 60 1018.4
20260904004004 22 19 3.2 6.4 0.00 0.00 0.00 60 1018.3
20260904003504 22 19 3.2 6.4 0.00 0.00 0.00 60 1018.4
20260904003004 22 12 3.2 6.4 0.00 0.00 0.00 61 1018.6
20260904002504 22 8 3.2 6.4 0.00 0.00 0.00 61 1018.5